Location: Brede
(50.9167°N, 0.6000°E)
Time: 02:30:42
(UTC+00:00)

Cosmos 2082 - Pass Details

Date: 08 August 2020
Orbit: 834 x 855 km, 71.0° (Epoch: 19 September)

Event Time Altitude Azimuth Distance (km) Brightness Sun altitude
Exits shadow 03:21:11 13° 239° (WSW) 2,246 5.3 -10.3°
Maximum altitude 03:25:58 44° 309° (NW) 1,138 4.3 -9.8°
Drops below altitude 10° 03:31:21 10° 22° (NNE) 2,456 7.2 -9.1°
Sets 03:33:56 0° 29° (NNE) 3,395 8.3 -8.8°
